Location: Berlise
(49.6641°N, 4.1077°E)
Time: 23:45:12
(UTC+00:00)

ATLAS CENTAUR R/B - Pass Details

Date: 27 January 2021
Orbit: 471 x 674 km, 64.6° (Epoch: 28 February)

Event Time Altitude Azimuth Distance (km) Brightness Sun altitude
Exits shadow 06:08:16 19° 274° (W) 1,187 2.4 -12.0°
Maximum altitude 06:10:07 30° 321° (NW) 883 1.9 -11.7°
Drops below altitude 10° 06:13:23 10° 25° (NNE) 1,658 3.9 -11.2°
Sets 06:15:45 0° 36° (NE) 2,557 5.0 -10.9°
